• Join FlightAware (Why Join?)
  • Login
  • US Flag 
07:38PM EST


 

Airport Tracker/Info


-or-


 

Live Flight TrackerFlight Track Log ✈ FFT920 ✈ 22-Jul-2013 ✈ KRDU - KTTN

Flight Track Log - Related Links

Times and Time Zones

All times are in EDT time to prevent confusion due to time zone crossing. See the FFT920 flight status page for this flight to view local times or setup timezone preferences in your user account.

Time Position Orientation Groundspeed Altitude Reporting Facility
EDT Latitude Longitude Course Direction KTS MPH feet Rate Location/Type
08:47AM 35.8644 -78.8164 232° Southwest 149 171 1,500  Level Washington Center
08:48AM 35.8403 -78.8539 232° Southwest 178 205 2,700 1,541 Climbing Washington Center
08:49AM 35.8967 -78.8586 356° North 266 306 4,300 2,346 Climbing Washington Center
08:50AM 35.9792 -78.8158 23° Northeast 291 335 7,900 2,769 Climbing Washington Center
08:51AM 36.0150 -78.7967 23° Northeast 289 333 9,100 2,687 Climbing Washington Center
08:51AM 36.0681 -78.7706 22° Northeast 300 345 10,900 2,370 Climbing Washington Center
08:53AM 36.1950 -78.7036 23° Northeast 360 414 13,800 2,098 Climbing Washington Center
08:54AM 36.2836 -78.6608 21° North 361 415 15,900 2,033 Climbing Washington Center
08:55AM 36.3808 -78.6106 23° Northeast 368 423 17,900 1,967 Climbing Washington Center
08:57AM 36.6000 -78.5283 17° North 401 461 21,800 1,800 Climbing Washington Center
08:58AM 36.7117 -78.4808 19° North 408 470 23,300 1,513 Climbing Washington Center
08:59AM 36.8197 -78.4175 25° Northeast 413 475 24,800 1,613 Climbing Washington Center
09:00AM 36.9217 -78.3328 34° Northeast 421 484 26,500 1,884 Climbing Washington Center
09:01AM 37.0367 -78.2353 34° Northeast 449 517 28,600 1,785 Climbing Washington Center
09:02AM 37.1194 -78.1678 33° Northeast 449 517 30,100 1,210 Climbing Washington Center
09:03AM 37.2403 -78.0703 33° Northeast 437 503 31,000 454 Climbing Washington Center
09:04AM 37.3400 -77.9872 34° Northeast 437 503 31,000  Level Washington Center
09:05AM 37.4397 -77.9042 33° Northeast 432 497 31,000  Level Washington Center
09:06AM 37.5417 -77.8156 35° Northeast 432 497 31,000  Level Washington Center
09:07AM 37.6392 -77.7267 36° Northeast 432 497 31,000  Level Washington Center
09:08AM 37.7386 -77.6400 35° Northeast 432 497 31,000  Level Washington Center
09:09AM 37.8256 -77.5608 36° Northeast 432 497 31,000  Level Washington Center
09:10AM 37.9336 -77.4583 37° Northeast 432 497 31,000  Level Washington Center
09:11AM 38.0222 -77.3789 35° Northeast 437 503 31,000  Level Washington Center
09:12AM 38.1281 -77.2811 36° Northeast 431 496 31,000  Level Washington Center
09:13AM 38.2250 -77.1933 35° Northeast 431 496 31,000  Level Washington Center
09:14AM 38.3222 -77.1056 35° Northeast 431 496 31,000 -298 Level Washington Center
09:15AM 38.4192 -77.0147 36° Northeast 426 490 30,400 -1,322 Descending Washington Center
09:16AM 38.5142 -76.9236 37° Northeast 426 490 28,400 -2,186 Descending Washington Center
09:17AM 38.6089 -76.8350 36° Northeast 426 490 26,100 -2,331 Descending Washington Center
09:18AM 38.7014 -76.7436 38° Northeast 426 490 23,700 -2,083 Descending Washington Center
09:19AM 38.7361 -76.6003 73° East 405 466 21,900 -1,785 Descending Washington Center
09:20AM 38.7664 -76.4622 74° East 392 451 20,100 -1,686 Descending Washington Center
09:21AM 38.7922 -76.3242 76° East 392 451 18,500 -1,576 Descending Washington Center
09:22AM 38.8181 -76.1939 76° East 392 451 17,000 -1,576 Descending Washington Center
09:23AM 38.8436 -76.0661 76° East 381 438 15,400 -1,377 Descending Washington Center
09:24AM 38.8711 -75.9408 74° East 371 427 14,200 -1,415 Descending Washington Center
09:25AM 38.9028 -75.8211 71° East 360 414 12,500 -1,109 Descending Washington Center
09:26AM 38.9883 -75.7758 22° Northeast 311 358 12,000 -254 Descending Washington Center
09:27AM 39.0758 -75.7386 18° North 311 358 12,000  Level Washington Center
09:29AM 39.2500 -75.6667 18° North 335 386 12,000  Level Philadelphia TRACON
09:30AM 39.3333 -75.6167 25° Northeast 339 390 12,000  Level Philadelphia TRACON
09:31AM 39.4167 -75.5500 32° Northeast 336 387 12,000  Level Philadelphia TRACON
09:32AM 39.5000 -75.5333 North 333 383 12,000  Level Philadelphia TRACON
09:33AM 39.6000 -75.5000 14° North 329 379 12,000 -400 Level Philadelphia TRACON
09:34AM 39.6667 -75.4500 30° Northeast 338 389 11,200 -1,053 Descending Philadelphia TRACON
09:35AM 39.7167 -75.3333 61° Northeast 310 357 10,000 -1,318 Descending Philadelphia TRACON
09:36AM 39.7500 -75.2333 67° East 300 345 8,300 -1,476 Descending Philadelphia TRACON
09:37AM 39.7833 -75.1333 67° East 288 331 6,900 -1,444 Descending Philadelphia TRACON
09:38AM 39.8167 -75.0667 57° Northeast 274 315 5,700 -1,158 Descending Philadelphia TRACON
09:39AM 39.8333 -74.9500 79° East 259 298 4,700 -810 Descending Philadelphia TRACON
09:40AM 39.8667 -74.9000 49° Northeast 229 264 4,000 -350 Descending Philadelphia TRACON
09:41AM 39.9333 -74.8667 21° North 236 272 4,000  Level Philadelphia TRACON
09:42AM 40.0000 -74.8833 349° North 234 269 4,000 -333 Level Philadelphia TRACON
09:44AM 40.1167 -74.9167 348° North 222 255 3,000 -333 Descending Philadelphia TRACON
09:45AM 40.1667 -74.9333 346° North 191 220 3,000 -524 Level Philadelphia TRACON
09:46AM 40.2167 -74.9000 27° Northeast 178 205 1,900 -476 Descending Philadelphia TRACON
09:47AM 40.2500 -74.8833 21° North 189 217 2,000 50 Climbing Philadelphia TRACON
09:48AM 40.2667 -74.9333 294° West 200 230 2,000  Level Philadelphia TRACON
09:49AM 40.2500 -75.0000 252° West 203 234 2,000  Level Philadelphia TRACON